Location: Cedar Brake
(32.2526°N, 97.8459°W)
Time: 17:15:44
(UTC+00:00)

Cosmos 1908 Rocket - Pass Details

Date: 22 April 2026
Orbit: 598 x 625 km, 82.5° (Epoch: 9 May)

Event Time Altitude Azimuth Distance (km) Brightness Sun altitude
Exits shadow 02:59:30 67° 62° (ENE) 658 3.5 -22.9°
Drops below altitude 10° 03:03:29 10° 11° (NNE) 1,952 6.4 -23.6°
Sets 03:05:42 0° 9° (N) 2,855 7.3 -24.0°
